• In Österreich
  • Länderverzeichnis
  • Für 7 Tage
  • Wassertemperatur
  • Satellitenkarten
  • Wetterkarte
  • News
  • Widgets
  • user-avatar
    Anmelden

    Stündliche Wetter Carevo

    Heute, 25 September, Dienstag

    Zeit Temperatur Niederschläge Wind Luftdruck Luftfeuchtigkeit
    00:00 +6°C° 0.2 mm 5 m/S 734 mmHg 92%
    01:00 +6°C° 0.2 mm 5 m/S 734 mmHg 91%
    02:00 +6°C° 0.2 mm 5 m/S 735 mmHg 90%
    03:00 +5°C° 0 mm 5 m/S 736 mmHg 91%
    04:00 +3°C° 0 mm 5 m/S 736 mmHg 91%
    05:00 +3°C° 0 mm 5 m/S 737 mmHg 91%
    06:00 +3°C° 0 mm 5 m/S 738 mmHg 90%
    07:00 +5°C° 0 mm 5 m/S 738 mmHg 88%
    08:00 +5°C° 0 mm 5 m/S 739 mmHg 86%
    09:00 +6°C° 0 mm 5 m/S 740 mmHg 82%
    10:00 +6°C° 0 mm 5 m/S 740 mmHg 78%
    11:00 +7°C° 0 mm 5 m/S 741 mmHg 73%
    12:00 +7°C° 0.1 mm 5 m/S 742 mmHg 69%
    13:00 +8°C° 0.1 mm 6 m/S 742 mmHg 64%
    14:00 +8°C° 0.1 mm 6 m/S 743 mmHg 60%
    15:00 +8°C° 0.1 mm 5 m/S 743 mmHg 63%
    16:00 +7°C° 0.1 mm 5 m/S 744 mmHg 67%
    17:00 +6°C° 0.1 mm 4 m/S 745 mmHg 70%
    18:00 +5°C° 0 mm 4 m/S 745 mmHg 72%
    19:00 +4°C° 0 mm 4 m/S 746 mmHg 74%
    20:00 +4°C° 0 mm 4 m/S 747 mmHg 76%
    21:00 +3°C° 0 mm 4 m/S 747 mmHg 75%
    22:00 +3°C° 0 mm 4 m/S 748 mmHg 75%
    23:00 +2°C° 0 mm 3 m/S 749 mmHg 74%

    Morgen, 26 September, Mittwoch

    Zeit Temperatur Niederschläge Wind Luftdruck Luftfeuchtigkeit
    00:00 +2°C° 0 mm 3 m/S 749 mmHg 75%
    01:00 +1°C° 0 mm 3 m/S 750 mmHg 77%
    02:00 +1°C° 0 mm 3 m/S 750 mmHg 78%
    03:00 +1°C° 0 mm 3 m/S 751 mmHg 81%
    04:00 +2°C° 0 mm 2 m/S 751 mmHg 84%
    05:00 +2°C° 0 mm 2 m/S 751 mmHg 87%
    06:00 +2°C° 0 mm 3 m/S 752 mmHg 85%
    07:00 +2°C° 0 mm 3 m/S 752 mmHg 82%
    08:00 +3°C° 0 mm 3 m/S 752 mmHg 80%
    09:00 +5°C° 0 mm 3 m/S 752 mmHg 72%
    10:00 +7°C° 0 mm 4 m/S 752 mmHg 63%
    11:00 +10°C° 0 mm 4 m/S 751 mmHg 55%
    12:00 +11°C° 0 mm 4 m/S 751 mmHg 53%
    13:00 +10°C° 0 mm 5 m/S 750 mmHg 51%
    14:00 +10°C° 0 mm 5 m/S 749 mmHg 49%
    15:00 +10°C° 0 mm 5 m/S 749 mmHg 55%
    16:00 +9°C° 0 mm 5 m/S 748 mmHg 62%
    17:00 +8°C° 0 mm 5 m/S 747 mmHg 68%
    18:00 +7°C° 0.8 mm 6 m/S 746 mmHg 74%
    19:00 +7°C° 0.8 mm 6 m/S 745 mmHg 81%
    20:00 +5°C° 0.8 mm 7 m/S 744 mmHg 87%
    21:00 +5°C° 1.6 mm 7 m/S 743 mmHg 88%
    22:00 +5°C° 1.6 mm 7 m/S 742 mmHg 89%
    23:00 +5°C° 1.6 mm 8 m/S 740 mmHg 90%

    übermorgen, 27 September, Donnerstag

    Zeit Temperatur Niederschläge Wind Luftdruck Luftfeuchtigkeit
    00:00 +6°C° 0.9 mm 7 m/S 739 mmHg 90%
    01:00 +6°C° 0.9 mm 7 m/S 739 mmHg 90%
    02:00 +6°C° 0.9 mm 7 m/S 738 mmHg 90%
    03:00 +7°C° 1.2 mm 6 m/S 738 mmHg 91%
    04:00 +8°C° 1.2 mm 5 m/S 737 mmHg 92%
    05:00 +8°C° 1.2 mm 5 m/S 737 mmHg 93%
    06:00 +8°C° 0.1 mm 4 m/S 738 mmHg 90%
    07:00 +8°C° 0.1 mm 4 m/S 738 mmHg 88%
    08:00 +8°C° 0.1 mm 4 m/S 738 mmHg 85%
    09:00 +9°C° 0 mm 5 m/S 739 mmHg 76%
    10:00 +9°C° 0 mm 5 m/S 739 mmHg 68%
    11:00 +10°C° 0 mm 6 m/S 739 mmHg 60%
    12:00 +10°C° 0 mm 6 m/S 739 mmHg 56%
    13:00 +11°C° 0 mm 6 m/S 740 mmHg 53%
    14:00 +11°C° 0 mm 6 m/S 740 mmHg 50%
    15:00 +10°C° 0 mm 5 m/S 740 mmHg 55%
    16:00 +11°C° 0 mm 4 m/S 740 mmHg 60%
    17:00 +10°C° 0 mm 3 m/S 741 mmHg 65%
    18:00 +9°C° 0 mm 3 m/S 741 mmHg 67%
    19:00 +8°C° 0 mm 3 m/S 741 mmHg 69%
    20:00 +7°C° 0 mm 3 m/S 742 mmHg 71%
    21:00 +7°C° 0 mm 3 m/S 742 mmHg 73%
    22:00 +5°C° 0 mm 3 m/S 742 mmHg 76%
    23:00 +5°C° 0 mm 2 m/S 742 mmHg 78%

    28 September, Freitag

    Zeit Temperatur Niederschläge Wind Luftdruck Luftfeuchtigkeit
    00:00 +5°C° 0 mm 2 m/S 741 mmHg 79%
    01:00 +5°C° 0 mm 2 m/S 741 mmHg 80%
    02:00 +4°C° 0 mm 3 m/S 740 mmHg 81%
    03:00 +6°C° 1.2 mm 4 m/S 738 mmHg 85%
    04:00 +7°C° 1.2 mm 5 m/S 737 mmHg 88%
    05:00 +8°C° 1.2 mm 6 m/S 735 mmHg 92%
    06:00 +9°C° 1.1 mm 7 m/S 734 mmHg 91%
    07:00 +10°C° 1.1 mm 7 m/S 733 mmHg 89%
    08:00 +12°C° 1.1 mm 8 m/S 732 mmHg 88%
    09:00 +10°C° 1.1 mm 7 m/S 733 mmHg 88%
    10:00 +9°C° 1.1 mm 6 m/S 734 mmHg 88%
    11:00 +8°C° 1.1 mm 6 m/S 735 mmHg 88%
    12:00 +7°C° 0.1 mm 5 m/S 736 mmHg 86%
    13:00 +7°C° 0.1 mm 5 m/S 738 mmHg 84%
    14:00 +6°C° 0.1 mm 5 m/S 739 mmHg 82%
    15:00 +6°C° 0.1 mm 4 m/S 740 mmHg 82%
    16:00 +7°C° 0.1 mm 3 m/S 741 mmHg 82%
    17:00 +6°C° 0.1 mm 2 m/S 742 mmHg 82%
    18:00 +5°C° 0 mm 2 m/S 743 mmHg 85%
    19:00 +4°C° 0 mm 2 m/S 743 mmHg 88%
    20:00 +4°C° 0 mm 1 m/S 744 mmHg 90%
    21:00 +4°C° 0 mm 1 m/S 744 mmHg 91%
    22:00 +3°C° 0 mm 2 m/S 744 mmHg 92%
    23:00 +3°C° 0 mm 2 m/S 745 mmHg 93%

    29 September, Samstag

    Zeit Temperatur Niederschläge Wind Luftdruck Luftfeuchtigkeit
    00:00 +3°C° 0 mm 2 m/S 745 mmHg 93%
    01:00 +3°C° 0 mm 2 m/S 745 mmHg 93%
    02:00 +3°C° 0 mm 2 m/S 745 mmHg 93%
    03:00 +4°C° 0 mm 2 m/S 745 mmHg 93%
    04:00 +4°C° 0 mm 2 m/S 745 mmHg 93%
    05:00 +4°C° 0 mm 2 m/S 745 mmHg 93%
    06:00 +4°C° 0 mm 2 m/S 746 mmHg 92%
    07:00 +4°C° 0 mm 3 m/S 746 mmHg 90%
    08:00 +4°C° 0 mm 3 m/S 747 mmHg 89%
    09:00 +5°C° 0 mm 3 m/S 747 mmHg 81%
    10:00 +7°C° 0 mm 2 m/S 748 mmHg 73%
    11:00 +7°C° 0 mm 2 m/S 748 mmHg 65%
    12:00 +8°C° 0 mm 2 m/S 748 mmHg 59%
    13:00 +8°C° 0 mm 2 m/S 749 mmHg 53%
    14:00 +9°C° 0 mm 2 m/S 749 mmHg 47%
    15:00 +8°C° 0 mm 2 m/S 749 mmHg 53%
    16:00 +8°C° 0 mm 1 m/S 749 mmHg 58%
    17:00 +7°C° 0 mm 1 m/S 750 mmHg 64%
    18:00 +6°C° 0 mm 1 m/S 750 mmHg 67%
    19:00 +5°C° 0 mm 1 m/S 750 mmHg 70%
    20:00 +4°C° 0 mm 1 m/S 751 mmHg 73%
    21:00 +3°C° 0 mm 1 m/S 751 mmHg 74%
    22:00 +3°C° 0 mm 1 m/S 751 mmHg 75%
    23:00 +3°C° 0 mm 1 m/S 751 mmHg 77%

    30 September, Sonntag

    Zeit Temperatur Niederschläge Wind Luftdruck Luftfeuchtigkeit
    00:00 +3°C° 0 mm 1 m/S 751 mmHg 77%
    01:00 +1°C° 0 mm 2 m/S 751 mmHg 78%
    02:00 +1°C° 0 mm 2 m/S 751 mmHg 79%
    03:00 +1°C° 0 mm 2 m/S 751 mmHg 79%
    04:00 +1°C° 0 mm 2 m/S 751 mmHg 79%
    05:00 +1°C° 0 mm 2 m/S 751 mmHg 79%
    06:00 +2°C° 0 mm 2 m/S 751 mmHg 75%
    07:00 +2°C° 0 mm 3 m/S 751 mmHg 71%
    08:00 +3°C° 0 mm 3 m/S 751 mmHg 67%
    09:00 +4°C° 0 mm 3 m/S 751 mmHg 63%
    10:00 +5°C° 0 mm 3 m/S 750 mmHg 59%
    11:00 +7°C° 0 mm 3 m/S 750 mmHg 55%
    12:00 +7°C° 0 mm 4 m/S 750 mmHg 53%
    13:00 +8°C° 0 mm 4 m/S 749 mmHg 51%
    14:00 +8°C° 0 mm 4 m/S 748 mmHg 49%
    15:00 +8°C° 0 mm 3 m/S 748 mmHg 54%
    16:00 +8°C° 0 mm 3 m/S 748 mmHg 60%
    17:00 +7°C° 0 mm 3 m/S 747 mmHg 65%
    18:00 +5°C° 0 mm 3 m/S 747 mmHg 70%
    19:00 +4°C° 0 mm 3 m/S 747 mmHg 74%
    20:00 +4°C° 0 mm 3 m/S 746 mmHg 78%
    21:00 +4°C° 0 mm 3 m/S 746 mmHg 80%
    22:00 +4°C° 0 mm 3 m/S 746 mmHg 82%
    23:00 +4°C° 0 mm 3 m/S 746 mmHg 84%
    Mehr zeigen